Tracking 29892 objects as of 21-Nov-2024
HD Live streaming from Space Station
objects crossing your sky now

ARIANE 2 DEB

Track ARIANE 2 DEB now!


NORAD ID: 33551
Int'l Code: 1989-006AT
Perigee: 1,423.8 km
Apogee: 35,630.8 km
Inclination: 9.1 °
Period: 651.6 minutes
Semi major axis: 24898 km
RCS: 0.1256 m2 (medium)
Launch date: January 27, 1989
Source: France (FR)
Launch site: FRENCH GUIANA (FRGUI)

Note: This is SATELLITE DEBRIS
Your satellite tracking list
Your tracking list is empty




NASA's NSSDC Master Catalog

Two Line Element Set (TLE):
1 33551U 89006AT  24325.68602365 -.00000080  00000-0  00000+0 0  9990
2 33551   9.0772 292.9862 6869338  29.4606  80.8908  2.20977647155910
Source of the keplerian elements: AFSPC